FW4445 Weather Reports


Display with metric or nautical units.
time (UTC)temp
F
wind
direction
speed
MPH
gust
MPH
rain 1hr
in
rain 24hr
in
rain mn
in
humidity
%
barometer
mb
20260506184515 60 250 1.0 5.0 0.00 0.51 0.42 96 1011.3
20260506184017 60 245 1.0 5.0 0.00 0.51 0.42 96 1011.4
20260506182517 60 213 1.0 5.0 0.00 0.51 0.42 96 1011.2
20260506182015 60 227 1.0 5.0 0.00 0.51 0.42 96 1011.4
20260506181515 60 293 0.0 3.0 0.00 0.51 0.42 96 1011.3
20260506181018 60 259 1.0 5.0 0.00 0.51 0.42 96 1011.4
20260506180516 60 248 1.0 6.0 0.00 0.51 0.42 96 1011.3
20260506180019 60 235 1.0 6.0 0.00 0.51 0.42 96 1011.0
20260506175516 60 224 1.0 6.0 0.00 0.51 0.42 96 1011.1
20260506174515 60 244 1.0 6.0 0.00 0.51 0.42 96 1011.3
20260506174016 60 244 1.0 6.0 0.00 0.51 0.42 96 1011.2
20260506173515 60 253 1.0 6.0 0.00 0.51 0.42 96 1011.3
20260506173015 60 253 1.0 6.0 0.00 0.51 0.42 96 1011.2
20260506172515 60 246 1.0 5.0 0.00 0.51 0.42 96 1010.8
20260506172015 60 245 1.0 5.0 0.00 0.51 0.42 96 1010.9
20260506171515 60 251 1.0 8.0 0.00 0.51 0.42 96 1011.1
20260506170515 60 237 2.0 6.0 0.00 0.51 0.42 96 1010.7
20260506170019 60 241 2.0 8.0 0.00 0.51 0.42 96 1010.9
20260506165515 60 246 2.0 8.0 0.00 0.52 0.42 96 1010.8
20260506165015 60 246 2.0 10.0 0.01 0.52 0.42 96 1010.9
20260506164515 60 245 2.0 10.0 0.01 0.52 0.42 96 1010.8
20260506164015 60 244 1.0 9.0 0.03 0.52 0.42 96 1010.7
20260506163515 60 245 1.0 6.0 0.03 0.52 0.42 96 1010.8
20260506163015 60 238 1.0 6.0 0.03 0.52 0.42 95 1010.7
20260506162515 60 241 1.0 6.0 0.04 0.52 0.42 95 1010.9
20260506162015 60 252 2.0 8.0 0.06 0.52 0.42 95 1010.9
20260506161515 60 245 2.0 8.0 0.07 0.52 0.42 95 1011.1
20260506161015 60 230 2.0 8.0 0.07 0.52 0.42 95 1010.9
20260506160016 59 250 3.0 9.0 0.07 0.52 0.42 95 1010.9
20260506155515 60 244 3.0 9.0 0.07 0.52 0.42 95 1010.8
20260506155019 60 225 3.0 11.0 0.06 0.51 0.41 95 1011.0
20260506154519 60 213 2.0 11.0 0.06 0.51 0.41 95 1010.8
20260506154015 61 254 1.0 5.0 0.03 0.49 0.39 95 1010.6
20260506153515 61 248 2.0 6.0 0.03 0.49 0.39 94 1011.0
20260506153015 61 264 1.0 6.0 0.03 0.49 0.39 94 1010.9
20260506152016 61 254 1.0 6.0 0.01 0.48 0.37 93 1011.1
20260506151016 61 246 0.0 6.0 0.00 0.48 0.36 93 1010.8
20260506150015 61 319 0.0 3.0 0.00 0.48 0.36 93 1011.0
20260506145515 62 301 0.0 3.0 0.00 0.48 0.36 93 1011.0
20260506145015 62 48 0.0 2.0 0.00 0.48 0.36 93 1011.0
20260506144516 62 127 0.0 3.0 0.00 0.48 0.36 93 1010.9
20260506144021 62 257 1.0 5.0 0.00 0.49 0.36 93 1011.0
20260506143514 62 271 1.0 5.0 0.00 0.49 0.36 93 1011.2
20260506143019 62 284 0.0 3.0 0.00 0.49 0.36 93 1011.4
20260506142515 62 293 1.0 5.0 0.00 0.50 0.36 93 1011.3
20260506142015 61 283 1.0 6.0 0.01 0.51 0.36 93 1011.1
20260506141515 61 263 1.0 6.0 0.01 0.51 0.36 92 1011.4
20260506140015 61 246 0.0 5.0 0.01 0.52 0.36 93 1011.5
20260506135516 61 260 0.0 3.0 0.01 0.52 0.36 93 1011.5
20260506135017 61 252 1.0 8.0 0.01 0.53 0.36 93 1011.6
20260506134516 61 252 2.0 8.0 0.01 0.54 0.36 92 1011.6
20260506134017 61 264 1.0 8.0 0.01 0.56 0.36 92 1011.6
20260506133515 61 247 1.0 9.0 0.01 0.58 0.36 93 1011.5
20260506133015 61 245 2.0 9.0 0.01 0.58 0.36 93 1011.8
20260506132519 61 242 2.0 8.0 0.01 0.59 0.36 93 1011.6
20260506132016 61 247 3.0 8.0 0.00 0.59 0.34 93 1011.7
20260506131515 61 250 3.0 9.0 0.00 0.61 0.34 93 1011.8
20260506131015 61 254 3.0 9.0 0.00 0.62 0.34 92 1012.0
20260506130514 61 269 3.0 9.0 0.00 0.63 0.34 93 1011.9
20260506130016 61 248 4.0 9.0 0.00 0.63 0.34 93 1012.0
20260506125015 61 252 5.0 13.0 0.00 0.64 0.34 92 1012.0
20260506124514 61 255 5.0 10.0 0.00 0.66 0.34 91 1011.9
20260506124014 61 259 5.0 10.0 0.00 0.66 0.34 90 1011.8
20260506123515 61 255 4.0 10.0 0.00 0.66 0.34 91 1011.9
20260506122015 61 258 3.0 9.0 0.00 0.66 0.34 91 1011.9
20260506121016 62 251 2.0 8.0 0.01 0.66 0.34 91 1011.8
20260506120516 62 225 2.0 8.0 0.01 0.66 0.34 91 1011.8
20260506120015 62 224 3.0 10.0 0.01 0.66 0.34 91 1011.9
20260506115017 61 263 4.0 10.0 0.01 0.66 0.34 92 1011.8
20260506114515 61 264 3.0 8.0 0.01 0.66 0.34 94 1011.9
20260506114015 61 269 2.0 8.0 0.01 0.66 0.34 93 1012.0
20260506113516 61 260 2.0 8.0 0.02 0.66 0.34 94 1012.1
20260506112515 61 261 2.0 6.0 0.02 0.66 0.34 94 1012.1
20260506111518 61 249 3.0 8.0 0.01 0.66 0.33 94 1012.1
20260506111015 61 258 2.0 6.0 0.04 0.66 0.33 94 1012.1
20260506110516 61 244 3.0 11.0 0.04 0.66 0.33 94 1012.3
20260506110019 61 262 4.0 11.0 0.04 0.66 0.33 94 1012.2
20260506105515 61 265 3.0 9.0 0.04 0.66 0.33 95 1012.3
20260506105018 60 244 2.0 8.0 0.04 0.66 0.33 95 1012.3
20260506104514 61 231 0.0 5.0 0.04 0.66 0.33 95 1012.4
20260506104015 61 232 0.0 3.0 0.04 0.66 0.33 95 1012.3
20260506103515 61 254 0.0 3.0 0.03 0.64 0.32 95 1012.5
20260506103015 61 260 0.0 3.0 0.03 0.64 0.32 95 1012.3
20260506102015 60 248 1.0 5.0 0.04 0.64 0.32 95 1012.5
20260506100015 61 178 0.0 3.0 0.01 0.61 0.29 94 1012.5
20260506095518 61 254 0.0 3.0 0.01 0.61 0.29 94 1012.6
20260506095016 61 203 0.0 3.0 0.01 0.61 0.29 94 1012.8
20260506094514 61 203 0.0 3.0 0.01 0.61 0.29 94 1012.7
20260506094015 60 57 0.0 3.0 0.01 0.61 0.29 94 1012.7
20260506093515 60 62 0.0 5.0 0.01 0.61 0.29 94 1012.7
20260506093015 60 71 0.0 5.0 0.01 0.61 0.29 94 1012.7
20260506092515 60 76 1.0 5.0 0.00 0.60 0.28 93 1012.7
20260506092015 61 75 0.0 5.0 0.00 0.60 0.28 93 1012.8
20260506091515 61 48 0.0 5.0 0.00 0.60 0.28 93 1012.7
20260506090016 61 19 1.0 5.0 0.00 0.60 0.28 92 1012.5
20260506084515 61 334 1.0 6.0 0.01 0.60 0.28 95 1012.7
20260506083017 60 82 1.0 5.0 0.01 0.60 0.28 97 1012.4
20260506082515 61 76 0.0 5.0 0.01 0.60 0.28 97 1012.2
20260506082018 61 268 1.0 5.0 0.02 0.60 0.28 97 1012.2
20260506081516 60 278 0.0 5.0 0.02 0.60 0.28 97 1012.3
20260506081018 61 0 0.0 0.0 0.02 0.60 0.28 97 1012.2
20260506073514 59 79 1.0 8.0 0.01 0.59 0.27 97 1012.0
20260506073015 58 76 1.0 8.0 0.01 0.59 0.27 97 1012.0
20260506072514 58 74 2.0 6.0 0.02 0.59 0.27 97 1012.2
20260506072018 58 78 2.0 6.0 0.04 0.58 0.26 97 1012.3
20260506071514 58 92 1.0 6.0 0.06 0.58 0.26 97 1012.2
20260506071015 58 82 1.0 8.0 0.09 0.58 0.26 97 1012.4
20260506070514 58 71 3.0 8.0 0.11 0.58 0.26 97 1012.3
20260506062515 58 84 1.0 6.0 0.24 0.57 0.24 96 1012.6
20260506062017 58 79 2.0 6.0 0.21 0.53 0.21 96 1012.4
20260506061517 58 71 2.0 6.0 0.19 0.51 0.19 96 1012.4
20260506061018 58 72 2.0 6.0 0.17 0.49 0.18 96 1012.2
20260506051018 58 70 1.0 6.0 0.00 0.32 0.00 95 1012.5
20260506050514 58 74 1.0 6.0 0.00 0.32 0.00 95 1012.4
20260506045015 58 65 2.0 6.0 0.00 0.32 0.00 96 1012.4
20260506044514 58 66 1.0 5.0 0.00 0.32 0.00 96 1012.4
20260506044016 58 60 1.0 3.0 0.00 0.32 0.00 96 1012.4
20260506043514 57 70 1.0 6.0 0.00 0.32 0.00 96 1012.4
20260506043015 57 71 2.0 6.0 0.00 0.32 0.00 96 1012.5
20260506042515 57 62 2.0 6.0 0.00 0.32 0.00 96 1012.5
20260506042015 57 56 1.0 6.0 0.00 0.32 0.00 96 1012.3
20260506041514 57 66 1.0 3.0 0.00 0.32 0.00 97 1012.4
20260506040015 57 57 0.0 3.0 0.00 0.32 0.00 97 1012.5
20260506035513 57 65 0.0 3.0 0.00 0.32 0.00 97 1012.6
20260506035015 57 66 1.0 3.0 0.00 0.32 0.00 97 1013.0
20260506034014 57 72 1.0 6.0 0.00 0.32 0.00 97 1012.5
20260506033514 57 73 0.0 3.0 0.00 0.32 0.00 97 1012.7
20260506033015 57 67 1.0 3.0 0.00 0.32 0.00 96 1012.5
20260506032514 57 68 1.0 3.0 0.00 0.32 0.00 96 1012.9
20260506032015 57 70 2.0 6.0 0.00 0.32 0.00 96 1012.6
20260506031514 57 70 1.0 6.0 0.00 0.32 0.00 96 1013.0
20260506031015 57 63 0.0 3.0 0.00 0.32 0.00 96 1012.6
20260506030514 57 68 0.0 5.0 0.00 0.32 0.00 96 1012.7
20260506030015 57 71 0.0 5.0 0.00 0.32 0.00 96 1013.1
20260506025513 57 68 1.0 3.0 0.00 0.32 0.00 96 1013.0
20260506025015 57 70 1.0 5.0 0.00 0.32 0.00 96 1013.0
20260506023514 57 0 0.0 0.0 0.00 0.32 0.00 97 1013.1
20260506023014 57 68 0.0 3.0 0.00 0.32 0.00 97 1013.0
20260506022514 57 62 0.0 3.0 0.00 0.32 0.00 97 1013.2
20260506022014 57 68 0.0 3.0 0.00 0.32 0.00 97 1013.3
20260506021514 57 75 0.0 3.0 0.00 0.32 0.00 97 1013.2
20260506021015 57 39 0.0 3.0 0.00 0.32 0.00 97 1013.1
20260506020515 57 51 0.0 3.0 0.00 0.32 0.00 97 1013.2
20260506020014 57 68 0.0 3.0 0.00 0.32 0.00 97 1013.2
20260506015516 57 68 0.0 3.0 0.00 0.32 0.00 97 1013.4
20260506014514 57 68 0.0 3.0 0.00 0.32 0.00 97 1013.3
20260506013513 57 68 0.0 3.0 0.00 0.32 0.00 97 1013.5
20260506013016 57 55 0.0 2.0 0.00 0.32 0.00 97 1013.2
20260506012515 57 54 0.0 2.0 0.00 0.32 0.00 97 1013.3
20260506012014 57 68 1.0 5.0 0.00 0.32 0.00 97 1013.1
20260506011018 57 75 0.0 3.0 0.00 0.32 0.00 97 1013.4
20260506010514 57 72 0.0 3.0 0.00 0.32 0.00 97 1013.1
20260506005517 57 58 0.0 2.0 0.00 0.32 0.00 97 1013.1
20260506005014 57 58 0.0 2.0 0.00 0.32 0.00 97 1013.2
20260506004517 57 0 0.0 0.0 0.00 0.32 0.00 97 1013.1
20260506004014 57 0 0.0 0.0 0.00 0.32 0.00 97 1013.3
20260506003517 57 74 0.0 3.0 0.00 0.32 0.00 97 1013.2
20260506003014 57 70 1.0 5.0 0.00 0.32 0.00 97 1013.2
20260506002515 56 68 1.0 5.0 0.00 0.32 0.00 97 1013.6
20260506002015 57 0 0.0 0.0 0.00 0.32 0.00 97 1013.5
20260506001517 57 0 0.0 0.0 0.00 0.32 0.00 97 1013.4
20260506001015 57 0 0.0 0.0 0.00 0.32 0.00 97 1013.5
20260506000514 56 0 0.0 0.0 0.00 0.32 0.00 97 1013.5
20260506000014 56 0 0.0 0.0 0.00 0.32 0.00 97 1013.7
20260505235513 56 0 0.0 0.0 0.00 0.32 0.00 97 1013.6
20260505235015 56 0 0.0 0.0 0.00 0.32 0.00 97 1013.7
20260505234514 56 0 0.0 0.0 0.00 0.32 0.00 97 1013.6
20260505233513 56 0 0.0 0.0 0.00 0.32 0.00 97 1013.8
20260505233018 56 0 0.0 0.0 0.00 0.32 0.00 97 1013.8
20260505232015 56 0 0.0 0.0 0.00 0.32 0.00 97 1013.9
20260505231016 56 68 0.0 2.0 0.00 0.32 0.00 97 1014.1
20260505230014 56 68 0.0 2.0 0.00 0.32 0.00 97 1014.2
20260505225014 56 0 0.0 0.0 0.00 0.32 0.00 97 1014.2
20260505224514 56 0 0.0 0.0 0.00 0.32 0.00 97 1014.1
20260505224014 56 68 0.0 2.0 0.00 0.32 0.00 97 1014.2
20260505223015 56 73 0.0 3.0 0.00 0.32 0.00 97 1014.3
20260505222514 56 71 1.0 3.0 0.00 0.32 0.00 97 1014.3
20260505222015 56 75 1.0 3.0 0.01 0.32 0.00 97 1014.2
20260505221514 56 72 1.0 3.0 0.01 0.32 0.00 97 1014.2
20260505221014 56 55 0.0 3.0 0.01 0.32 0.00 97 1014.3
20260505220513 56 65 0.0 3.0 0.02 0.32 0.00 97 1014.3
20260505220026 56 68 0.0 3.0 0.02 0.32 0.00 97 1014.2
20260505215514 56 88 0.0 3.0 0.02 0.32 0.32 97 1014.3
20260505215015 56 89 0.0 3.0 0.02 0.32 0.32 97 1014.4
20260505214515 56 60 0.0 5.0 0.02 0.32 0.32 97 1014.3
20260505214015 56 53 0.0 5.0 0.02 0.32 0.32 97 1014.5
20260505213015 56 332 0.0 3.0 0.02 0.32 0.32 97 1014.5
20260505212514 56 54 1.0 5.0 0.02 0.32 0.32 97 1014.6
20260505212017 56 53 1.0 5.0 0.02 0.31 0.31 97 1014.6
20260505211514 56 300 0.0 5.0 0.02 0.31 0.31 97 1014.6
20260505211018 56 313 1.0 5.0 0.03 0.31 0.31 97 1014.8
20260505210014 56 46 0.0 3.0 0.02 0.30 0.30 97 1014.6
20260505205515 56 30 0.0 2.0 0.03 0.30 0.30 97 1014.6
20260505205018 56 179 0.0 2.0 0.03 0.30 0.30 97 1014.6
20260505204514 56 206 0.0 2.0 0.04 0.30 0.30 97 1014.8
20260505204015 56 0 0.0 0.0 0.04 0.30 0.30 97 1014.6
20260505203513 56 82 0.0 2.0 0.04 0.30 0.30 97 1014.7
20260505202514 56 76 2.0 5.0 0.04 0.30 0.30 97 1014.3
20260505202014 56 70 1.0 5.0 0.03 0.29 0.29 97 1014.6
20260505201514 56 348 0.0 5.0 0.03 0.29 0.29 97 1014.5
20260505201014 56 23 0.0 3.0 0.02 0.28 0.28 97 1014.7
20260505200514 56 28 0.0 2.0 0.02 0.28 0.28 97 1014.4
20260505195515 56 70 0.0 5.0 0.03 0.27 0.27 96 1014.6
20260505195014 56 68 0.0 2.0 0.03 0.27 0.27 97 1014.7
20260505194514 56 61 0.0 3.0 0.02 0.26 0.26 96 1014.6
20260505194013 56 67 1.0 3.0 0.02 0.26 0.26 96 1014.8
20260505193518 56 69 0.0 3.0 0.02 0.26 0.26 96 1014.6
20260505193014 56 62 0.0 3.0 0.02 0.26 0.26 96 1014.6
20260505192514 55 69 0.0 3.0 0.02 0.26 0.26 96 1014.8
20260505192016 56 84 0.0 3.0 0.02 0.26 0.26 96 1014.6
20260505191514 56 80 1.0 3.0 0.02 0.26 0.26 96 1014.7
20260505191015 56 66 1.0 5.0 0.02 0.26 0.26 96 1014.6
20260505190515 56 49 0.0 5.0 0.02 0.26 0.26 96 1014.8
20260505190015 56 0 0.0 0.0 0.00 0.23 0.23 96 1014.6
20260505185017 55 68 0.0 5.0 0.00 0.23 0.23 96 1014.4